DW6996 Weather Reports


Display with metric or nautical units.
time (UTC)temp
F
wind
direction
speed
MPH
gust
MPH
rain 1hr
in
rain 24hr
in
rain mn
in
humidity
%
barometer
mb
20260903042340 95 213 0.0 0.0 0.00 0.07 0.00 31 1009.7
20260903041836 95 215 0.0 1.0 0.00 0.07 0.00 30 1009.7
20260903041335 95 215 0.0 1.0 0.00 0.07 0.00 29 1009.6
20260903040834 95 240 0.0 0.0 0.00 0.07 0.00 29 1009.6
20260903040334 95 240 0.0 0.0 0.00 0.07 0.00 29 1009.6
20260903040055 95 240 0.0 0.0 0.00 0.07 0.00 29 1009.4
20260903035330 96 234 0.0 0.0 0.00 0.07 0.00 28 1009.5
20260903034830 96 233 0.0 0.0 0.00 0.07 0.00 28 1009.4
20260903034326 96 231 0.0 0.0 0.00 0.07 0.00 28 1009.4
20260903033820 96 235 0.0 0.0 0.00 0.07 0.00 27 1009.4
20260903033313 96 235 0.0 0.0 0.00 0.07 0.00 27 1009.4
20260903032808 96 242 0.0 0.0 0.00 0.07 0.00 27 1009.3
20260903032305 96 228 0.0 1.0 0.00 0.07 0.00 27 1009.3
20260903031802 96 242 0.0 1.0 0.00 0.07 0.00 27 1009.3
20260903031301 96 229 0.0 4.0 0.00 0.07 0.00 28 1009.3
20260903030801 96 220 0.0 4.0 0.00 0.07 0.00 28 1009.2
20260903030302 96 232 0.0 1.0 0.00 0.07 0.00 29 1009.2
20260903025801 96 227 0.0 1.0 0.00 0.07 0.00 30 1009.1
20260903025305 96 221 0.0 0.0 0.00 0.07 0.00 30 1009.1
20260903024801 96 213 0.0 0.0 0.00 0.07 0.00 30 1009.0
20260903024525 97 231 0.0 0.0 0.00 0.07 0.00 30 1008.9
20260903023801 97 227 0.0 1.0 0.00 0.07 0.00 30 1009.0
20260903023301 97 240 0.0 1.0 0.00 0.07 0.00 30 1008.9
20260903022801 97 213 0.0 0.0 0.00 0.07 0.00 29 1008.9
20260903022305 97 223 0.0 2.0 0.00 0.07 0.00 29 1008.8
20260903021801 97 231 0.0 3.0 0.00 0.07 0.00 29 1008.7
20260903021302 97 246 0.0 3.0 0.00 0.07 0.00 28 1008.7
20260903020801 97 238 0.0 2.0 0.00 0.07 0.00 28 1008.8
20260903020301 97 249 0.0 0.0 0.00 0.07 0.00 28 1008.8
20260903020023 97 236 0.0 0.0 0.00 0.07 0.00 28 1008.7
20260903015305 98 226 0.0 0.0 0.00 0.07 0.00 28 1008.7
20260903014801 98 240 0.0 0.0 0.00 0.07 0.00 28 1008.6
20260903014302 98 232 0.0 1.0 0.00 0.07 0.00 27 1008.6
20260903013802 98 252 0.0 3.0 0.00 0.07 0.00 27 1008.5
20260903013520 98 223 0.0 3.0 0.00 0.07 0.00 28 1008.6
20260903012801 98 211 0.0 1.0 0.00 0.07 0.00 28 1008.5
20260903012306 98 207 0.0 6.0 0.00 0.07 0.00 27 1008.6
20260903011801 99 195 0.0 6.0 0.00 0.07 0.00 27 1008.6
20260903011301 99 243 0.0 10.0 0.00 0.07 0.00 27 1008.6
20260903011023 99 238 0.0 10.0 0.00 0.07 0.00 26 1008.6
20260903010301 99 237 0.0 4.0 0.00 0.07 0.00 27 1008.7
20260903005801 99 234 0.0 4.0 0.00 0.07 0.00 27 1008.6
20260903005306 99 215 0.0 5.0 0.00 0.07 0.00 27 1008.5
20260903004801 100 244 0.0 5.0 0.00 0.07 0.00 27 1008.5
20260903004301 100 242 0.0 5.0 0.00 0.07 0.00 26 1008.6
20260903004027 100 209 0.0 5.0 0.00 0.07 0.00 27 1008.5
20260903003301 100 225 0.0 4.0 0.00 0.07 0.00 27 1008.5
20260903002801 100 238 0.0 9.0 0.00 0.07 0.00 27 1008.5
20260903002301 100 276 0.0 9.0 0.00 0.07 0.00 27 1008.6
20260903002027 100 261 0.0 2.0 0.00 0.07 0.00 26 1008.5
20260903001301 100 242 0.0 3.0 0.00 0.07 0.00 27 1008.6
20260903000801 100 234 0.0 5.0 0.00 0.07 0.00 26 1008.7
20260903000531 101 257 0.0 5.0 0.00 0.07 0.00 26 1008.7
20260902235801 101 233 1.0 9.0 0.00 0.07 0.00 27 1008.8
20260902235305 101 249 1.0 9.0 0.00 0.07 0.00 27 1008.8
20260902234800 101 219 0.0 7.0 0.00 0.07 0.00 27 1008.8
20260902234301 101 217 0.0 7.0 0.00 0.07 0.00 27 1008.9
20260902234026 101 219 0.0 6.0 0.00 0.07 0.00 27 1009.0
20260902233522 101 254 0.0 10.0 0.00 0.07 0.00 26 1009.0
20260902232801 101 217 0.0 10.0 0.00 0.07 0.00 26 1009.0
20260902232301 101 199 0.0 6.0 0.00 0.07 0.00 27 1009.0
20260902231800 101 217 0.0 6.0 0.00 0.07 0.00 27 1009.1
20260902231301 101 250 0.0 4.0 0.00 0.07 0.00 27 1009.2
20260902230801 101 226 1.0 11.0 0.00 0.07 0.00 27 1009.1
20260902230753 101 194 1.0 11.0 0.00 0.07 0.00 27 1009.2
20260902225800 101 192 0.0 9.0 0.00 0.07 0.00 27 1009.3
20260902225301 101 191 1.0 10.0 0.00 0.07 0.00 27 1009.4
20260902224801 101 221 1.0 10.0 0.00 0.07 0.00 27 1009.5
20260902224526 101 215 1.0 6.0 0.00 0.07 0.00 27 1009.5
20260902223800 101 215 3.0 15.0 0.00 0.07 0.00 27 1009.6
20260902223301 101 215 3.0 15.0 0.00 0.07 0.00 27 1009.7
20260902223025 101 245 1.0 14.0 0.00 0.07 0.00 26 1009.7
20260902222301 102 252 1.0 8.0 0.00 0.07 0.00 26 1009.7
20260902221801 102 250 1.0 8.0 0.00 0.07 0.00 26 1009.8
20260902221301 102 255 0.0 7.0 0.00 0.07 0.00 26 1009.8
20260902220801 102 190 1.0 11.0 0.00 0.07 0.00 26 1009.8
20260902220301 102 239 2.0 11.0 0.00 0.07 0.00 26 1009.9
20260902215802 102 215 0.0 7.0 0.00 0.07 0.00 25 1010.0
20260902215300 102 259 0.0 0.0 0.00 0.07 0.00 26 1010.1
20260902214801 102 200 0.0 1.0 0.00 0.07 0.00 26 1010.1
20260902214301 102 189 1.0 10.0 0.00 0.07 0.00 26 1010.2
20260902213801 102 182 1.0 10.0 0.00 0.07 0.00 26 1010.3
20260902213301 102 209 0.0 3.0 0.00 0.07 0.00 26 1010.3
20260902212801 101 241 0.0 3.0 0.00 0.07 0.00 26 1010.3
20260902212305 102 263 0.0 3.0 0.00 0.07 0.00 25 1010.3
20260902211801 102 167 0.0 0.0 0.00 0.07 0.00 26 1010.3
20260902211301 102 196 0.0 7.0 0.00 0.07 0.00 27 1010.4
20260902210802 101 205 0.0 7.0 0.00 0.07 0.00 27 1010.6
20260902210742 101 210 0.0 3.0 0.00 0.07 0.00 28 1010.7
20260902205800 101 273 0.0 6.0 0.00 0.07 0.00 27 1010.8
20260902205301 101 227 1.0 6.0 0.00 0.07 0.00 27 1010.9
20260902204802 101 184 0.0 6.0 0.00 0.07 0.00 28 1011.0
20260902204521 101 211 1.0 7.0 0.00 0.07 0.00 28 1011.1
20260902204024 100 206 0.0 7.0 0.00 0.07 0.00 29 1011.1
20260902203301 100 238 0.0 10.0 0.00 0.07 0.00 29 1011.2
20260902202801 100 250 0.0 10.0 0.00 0.07 0.00 29 1011.2
20260902202524 100 230 0.0 0.0 0.00 0.07 0.00 29 1011.3
20260902202008 100 240 0.0 5.0 0.00 0.07 0.00 29 1011.6
20260902201953 100 221 0.0 7.0 0.00 0.07 0.00 29 1011.5
20260902201502 100 200 0.0 7.0 0.00 0.07 0.00 29 1011.5
20260902200301 100 203 0.0 1.0 0.00 0.07 0.00 29 1011.6
20260902195801 99 132 0.0 1.0 0.00 0.07 0.00 29 1011.7
20260902195531 100 156 0.0 7.0 0.00 0.07 0.00 28 1011.8
20260902194800 100 202 1.0 10.0 0.00 0.07 0.00 29 1011.9
20260902194301 100 231 1.0 10.0 0.00 0.07 0.00 28 1011.9
20260902193801 100 149 0.0 1.0 0.00 0.07 0.00 27 1012.0
20260902193300 99 198 0.0 1.0 0.00 0.07 0.00 29 1012.1
20260902192802 99 239 0.0 1.0 0.00 0.07 0.00 29 1012.1
20260902192300 99 197 0.0 6.0 0.00 0.07 0.00 30 1012.3
20260902191800 99 199 1.0 8.0 0.00 0.07 0.00 30 1012.4
20260902191527 99 166 1.0 8.0 0.00 0.07 0.00 31 1012.3
20260902190801 99 211 0.0 2.0 0.00 0.07 0.00 31 1012.4
20260902190524 98 173 0.0 3.0 0.00 0.07 0.00 33 1012.5
20260902185800 98 200 0.0 3.0 0.00 0.07 0.00 32 1012.5
20260902185301 98 184 0.0 3.0 0.00 0.07 0.00 33 1012.6
20260902184801 98 202 0.0 1.0 0.00 0.07 0.00 33 1012.6
20260902184301 98 170 0.0 1.0 0.00 0.07 0.00 34 1012.7
20260902183802 98 167 0.0 1.0 0.00 0.07 0.00 34 1012.8
20260902183302 98 263 0.0 4.0 0.00 0.07 0.00 35 1012.9
20260902183023 98 122 0.0 4.0 0.00 0.07 0.00 34 1012.9
20260902182301 97 229 0.0 0.0 0.00 0.07 0.00 37 1012.9
20260902181801 97 158 0.0 1.0 0.00 0.07 0.00 36 1013.0
20260902181301 97 159 0.0 2.0 0.00 0.07 0.00 37 1013.2
20260902180800 96 144 0.0 2.0 0.00 0.07 0.00 37 1013.2
20260902180301 96 160 0.0 0.0 0.00 0.07 0.00 37 1013.2
20260902175801 96 157 0.0 1.0 0.00 0.07 0.00 37 1013.2
20260902175301 96 157 0.0 7.0 0.00 0.07 0.00 37 1013.3
20260902174754 96 178 0.0 7.0 0.00 0.07 0.00 37 1013.4
20260902174509 96 161 0.0 3.0 0.00 0.07 0.00 38 1013.4
20260902173742 96 147 0.0 0.0 0.00 0.07 0.00 37 1013.3
20260902173458 95 176 0.0 2.0 0.00 0.07 0.00 38 1013.4
20260902172739 96 108 0.0 2.0 0.00 0.07 0.00 37 1013.4
20260902172239 96 167 0.0 0.0 0.00 0.07 0.00 38 1013.4
20260902171736 96 227 0.0 0.0 0.00 0.07 0.00 39 1013.4
20260902171236 95 319 0.0 0.0 0.00 0.07 0.00 40 1013.4
20260902170737 95 321 0.0 0.0 0.00 0.07 0.00 40 1013.4
20260902170502 94 316 0.0 0.0 0.00 0.07 0.00 41 1013.4
20260902165735 94 310 0.0 0.0 0.00 0.07 0.00 41 1013.4
20260902165235 94 336 0.0 0.0 0.00 0.07 0.00 41 1013.4
20260902164733 93 34 0.0 0.0 0.00 0.07 0.00 43 1013.4
20260902164231 93 36 0.0 0.0 0.00 0.07 0.00 42 1013.4
20260902163732 93 302 0.0 0.0 0.00 0.07 0.00 43 1013.4
20260902163232 92 302 0.0 0.0 0.00 0.07 0.00 43 1013.4
20260902162731 92 271 0.0 0.0 0.00 0.07 0.00 43 1013.5
20260902162230 92 270 0.0 0.0 0.00 0.07 0.00 43 1013.5
20260902161731 92 213 0.0 0.0 0.00 0.07 0.00 44 1013.4
20260902161231 92 153 0.0 0.0 0.00 0.07 0.00 44 1013.5
20260902160953 92 145 0.0 0.0 0.00 0.07 0.00 45 1013.4
20260902160454 91 144 0.0 0.0 0.00 0.07 0.00 46 1013.5
20260902155730 91 171 0.0 0.0 0.00 0.07 0.00 46 1013.5
20260902155232 91 171 0.0 0.0 0.00 0.07 0.00 46 1013.5
20260902154731 90 186 0.0 0.0 0.00 0.07 0.00 47 1013.5
20260902154456 90 186 0.0 0.0 0.00 0.07 0.00 47 1013.5
20260902153731 90 182 0.0 0.0 0.00 0.07 0.00 48 1013.5
20260902153230 89 201 0.0 0.0 0.00 0.07 0.00 49 1013.4
20260902152731 89 213 0.0 0.0 0.00 0.07 0.00 49 1013.4
20260902152231 89 211 0.0 0.0 0.00 0.07 0.00 50 1013.3
20260902151729 89 221 0.0 0.0 0.00 0.07 0.00 50 1013.3
20260902151229 88 201 0.0 0.0 0.00 0.07 0.00 50 1013.3
20260902150953 88 194 0.0 0.0 0.00 0.07 0.00 50 1013.3
20260902150230 87 188 0.0 0.0 0.00 0.07 0.00 50 1013.2
20260902145728 87 187 0.0 0.0 0.00 0.07 0.00 50 1013.2
20260902145228 87 187 0.0 0.0 0.00 0.07 0.00 50 1013.2
20260902144727 87 187 0.0 0.0 0.00 0.07 0.00 51 1013.0
20260902144225 87 185 0.0 0.0 0.00 0.07 0.00 52 1013.0
20260902143723 87 181 0.0 0.0 0.00 0.07 0.00 53 1012.9
20260902143221 87 181 0.0 0.0 0.00 0.07 0.00 53 1012.9
20260902142721 87 128 0.0 0.0 0.00 0.07 0.00 55 1012.8
20260902142220 87 128 0.0 0.0 0.00 0.07 0.00 55 1012.8
20260902141943 87 128 0.0 0.0 0.00 0.07 0.00 52 1012.7
20260902141218 87 128 0.0 0.0 0.00 0.07 0.00 49 1012.6
20260902140939 86 127 0.0 0.0 0.00 0.07 0.00 50 1012.6
20260902140214 86 128 0.0 0.0 0.00 0.07 0.00 50 1012.6
20260902135714 85 128 0.0 0.0 0.00 0.07 0.00 50 1012.6
20260902135212 85 127 0.0 0.0 0.00 0.07 0.00 51 1012.5
20260902134713 85 128 0.0 0.0 0.00 0.07 0.00 52 1012.5
20260902134434 84 128 0.0 0.0 0.00 0.07 0.00 52 1012.5
20260902133710 84 128 0.0 0.0 0.00 0.07 0.00 53 1012.4
20260902133208 84 128 0.0 0.0 0.00 0.07 0.00 54 1012.4
20260902132707 84 128 0.0 0.0 0.00 0.07 0.00 55 1012.4
20260902132204 84 128 0.0 0.0 0.00 0.07 0.00 54 1012.3
20260902131924 84 128 0.0 0.0 0.00 0.07 0.00 55 1012.2
20260902131201 84 128 0.0 0.0 0.00 0.07 0.00 53 1012.2
20260902130701 84 128 0.0 0.0 0.00 0.07 0.00 54 1012.1
20260902130201 84 128 0.0 0.0 0.00 0.07 0.00 55 1012.1
20260902125702 84 128 0.0 0.0 0.00 0.07 0.00 54 1012.1
20260902125200 84 128 0.0 0.0 0.00 0.07 0.00 53 1011.9
20260902124928 84 128 0.0 0.0 0.00 0.07 0.00 52 1011.9
20260902124201 84 128 0.0 0.0 0.00 0.07 0.00 52 1011.9
20260902123701 84 161 0.0 0.0 0.00 0.07 0.00 53 1011.8
20260902123201 85 161 0.0 0.0 0.00 0.07 0.00 53 1011.8
20260902122701 85 161 0.0 0.0 0.00 0.07 0.00 53 1011.8
20260902122200 85 161 0.0 0.0 0.00 0.07 0.00 51 1011.7
20260902122148 85 161 0.0 0.0 0.00 0.07 0.00 50 1011.8
20260902121201 86 161 0.0 0.0 0.00 0.07 0.00 50 1011.7
20260902120701 86 161 0.0 0.0 0.00 0.07 0.00 49 1011.6
20260902120201 86 161 0.0 0.0 0.00 0.07 0.00 49 1011.6
20260902115701 86 161 0.0 0.0 0.00 0.07 0.00 49 1011.6
20260902115201 86 161 0.0 0.0 0.00 0.07 0.00 48 1011.6
20260902114702 86 161 0.0 0.0 0.00 0.07 0.00 48 1011.5
20260902114200 86 161 0.0 0.0 0.00 0.07 0.00 48 1011.5
20260902113701 86 161 0.0 0.0 0.00 0.07 0.00 47 1011.5
20260902113200 86 161 0.0 0.0 0.00 0.07 0.00 47 1011.5
20260902112701 87 161 0.0 0.0 0.00 0.07 0.00 47 1011.5
20260902112201 87 161 0.0 0.0 0.00 0.07 0.00 47 1011.5
20260902111921 87 161 0.0 0.0 0.00 0.07 0.00 47 1011.4
20260902111201 87 161 0.0 0.0 0.00 0.07 0.00 47 1011.4
20260902110701 87 161 0.0 0.0 0.00 0.07 0.00 47 1011.4
20260902110426 87 161 0.0 0.0 0.00 0.07 0.00 47 1011.4
20260902105701 87 161 0.0 0.0 0.00 0.07 0.00 48 1011.5
20260902105201 87 161 0.0 0.0 0.00 0.07 0.00 47 1011.4
20260902104701 87 161 0.0 0.0 0.00 0.07 0.00 47 1011.5
20260902104200 87 161 0.0 0.0 0.00 0.07 0.00 47 1011.5
20260902103924 87 161 0.0 0.0 0.00 0.07 0.00 48 1011.5
20260902103201 87 161 0.0 0.0 0.00 0.07 0.00 47 1011.5
20260902102701 87 161 0.0 0.0 0.00 0.07 0.00 47 1011.5
20260902102200 87 161 0.0 0.0 0.00 0.07 0.00 47 1011.5
20260902101701 87 161 0.0 0.0 0.00 0.07 0.00 48 1011.5
20260902101201 87 161 0.0 0.0 0.00 0.07 0.00 47 1011.5
20260902100701 87 161 0.0 0.0 0.00 0.07 0.00 47 1011.5
20260902100201 87 161 0.0 0.0 0.00 0.07 0.00 48 1011.5
20260902095701 87 161 0.0 0.0 0.00 0.07 0.00 48 1011.6
20260902095201 87 161 0.0 0.0 0.00 0.07 0.00 48 1011.5
20260902094701 87 161 0.0 0.0 0.00 0.07 0.00 48 1011.5
20260902094201 87 161 0.0 0.0 0.00 0.07 0.00 48 1011.5
20260902093701 87 161 0.0 0.0 0.00 0.07 0.00 48 1011.5
20260902093425 87 161 0.0 0.0 0.00 0.07 0.00 48 1011.5
20260902092702 87 161 0.0 0.0 0.00 0.07 0.00 49 1011.5
20260902092200 88 161 0.0 0.0 0.00 0.07 0.00 49 1011.4
20260902091927 88 161 0.0 0.0 0.00 0.07 0.00 49 1011.4
20260902091201 88 161 0.0 0.0 0.00 0.07 0.00 49 1011.4
20260902090701 88 161 0.0 0.0 0.00 0.07 0.00 49 1011.4
20260902090201 88 161 0.0 0.0 0.00 0.07 0.00 49 1011.4
20260902085702 88 159 0.0 0.0 0.00 0.07 0.00 49 1011.4
20260902085201 88 159 0.0 0.0 0.00 0.07 0.00 50 1011.4
20260902084702 88 159 0.0 0.0 0.00 0.07 0.00 49 1011.4
20260902084200 88 159 0.0 0.0 0.00 0.07 0.00 50 1011.4
20260902083702 88 159 0.0 0.0 0.00 0.07 0.00 49 1011.5
20260902083200 88 175 0.0 0.0 0.00 0.07 0.00 49 1011.5
20260902082701 88 161 0.0 0.0 0.00 0.07 0.00 50 1011.5
20260902082201 88 161 0.0 0.0 0.00 0.07 0.00 50 1011.5
20260902081701 88 167 0.0 0.0 0.00 0.07 0.00 51 1011.5
20260902081201 88 167 0.0 0.0 0.00 0.07 0.00 51 1011.5
20260902080702 88 173 0.0 0.0 0.00 0.07 0.00 51 1011.5
20260902080200 87 173 0.0 0.0 0.00 0.07 0.00 51 1011.5
20260902075701 87 173 0.0 0.0 0.00 0.07 0.00 51 1011.5
20260902075203 87 170 0.0 0.0 0.00 0.07 0.00 51 1011.5
20260902074701 87 171 0.0 0.0 0.02 0.07 0.00 52 1011.5
20260902074424 87 171 0.0 0.0 0.07 0.07 0.00 53 1011.4
20260902073700 86 171 0.0 0.0 0.07 0.07 0.00 54 1011.3
20260902073202 86 171 0.0 0.0 0.07 0.07 0.00 54 1011.3
20260902072701 86 171 0.0 0.0 0.07 0.07 0.00 55 1011.3
20260902072201 85 169 0.0 0.0 0.07 0.07 0.00 56 1011.3
20260902071701 85 169 0.0 0.0 0.07 0.07 0.00 58 1011.3
20260902071201 85 169 0.0 0.0 0.07 0.07 0.00 59 1011.2
20260902070702 86 169 0.0 0.0 0.07 0.07 0.00 54 1011.1
20260902070421 87 175 0.0 0.0 0.07 0.07 0.00 55 1011.1
20260902065702 88 230 0.0 1.0 0.07 0.07 0.07 52 1011.1
20260902065201 89 223 1.0 18.0 0.07 0.07 0.06 48 1011.2
20260902064930 91 98 1.0 18.0 0.05 0.05 0.03 46 1011.5
20260902064202 92 169 0.0 0.0 0.00 0.00 0.00 40 1011.2
20260902063701 92 188 0.0 0.0 0.00 0.00 0.00 39 1011.1
20260902063201 93 179 0.0 0.0 0.00 0.00 0.00 39 1011.0
20260902062656 93 145 0.0 0.0 0.00 0.00 0.00 38 1010.8
20260902062152 93 130 0.0 1.0 0.00 0.00 0.00 38 1010.9
20260902061650 93 149 0.0 0.0 0.00 0.00 0.00 38 1010.9
20260902061150 93 137 0.0 0.0 0.00 0.00 0.00 38 1010.9
20260902060649 93 151 0.0 1.0 0.00 0.00 0.00 38 1010.9
20260902060149 93 139 0.0 1.0 0.00 0.00 0.00 37 1011.0
20260902055646 94 151 0.0 0.0 0.00 0.00 0.00 37 1011.0
20260902055144 94 134 0.0 5.0 0.00 0.00 0.00 36 1011.0
20260902054642 94 150 0.0 5.0 0.00 0.00 0.00 36 1010.9
20260902054142 94 122 0.0 1.0 0.00 0.00 0.00 36 1011.0
20260902053642 94 141 0.0 1.0 0.00 0.00 0.00 36 1010.9
20260902053140 94 125 0.0 1.0 0.00 0.00 0.00 36 1010.9
20260902052638 94 155 0.0 1.0 0.00 0.00 0.00 36 1011.0
20260902052136 94 157 0.0 0.0 0.00 0.00 0.00 36 1011.0
20260902051634 94 153 0.0 0.0 0.00 0.00 0.00 36 1011.0
20260902051132 94 162 0.0 0.0 0.00 0.00 0.00 36 1011.0
20260902050630 94 139 0.0 5.0 0.00 0.00 0.00 36 1011.0
20260902050129 94 165 0.0 5.0 0.00 0.00 0.00 36 1010.9
20260902045630 94 165 0.0 0.0 0.00 0.00 0.00 36 1010.9
20260902045129 94 164 0.0 1.0 0.00 0.00 0.00 36 1011.0
20260902045115 94 178 0.0 1.0 0.00 0.00 0.00 36 1010.9
20260902044614 94 159 0.0 1.0 0.00 0.00 0.00 36 1010.9
20260902043626 94 138 0.0 10.0 0.00 0.00 0.00 36 1010.9
20260902043120 94 150 0.0 10.0 0.00 0.00 0.00 36 1010.8